Time,TemperatureF,DewpointF,PressureIn,WindDirection,WindDirectionDegrees,WindSpeedMPH,WindSpeedGustMPH,Humidity,HourlyPrecipIn,Conditions,Clouds,dailyrainin,SoftwareType,DateUTC
2013-06-20 00:10:00,53.0,51.0,30.11,SSW,204,0.0,0.0,92,0.00,,,0.00,weatherlink.com 1.10,2013-06-20 04:10:00,
2013-06-20 00:25:00,52.9,51.0,30.11,SSW,204,0.0,0.0,93,0.00,,,0.00,weatherlink.com 1.10,2013-06-20 04:25:00,
2013-06-20 00:41:00,52.6,51.0,30.11,SSW,204,0.0,0.0,93,0.00,,,0.00,weatherlink.com 1.10,2013-06-20 04:41:00,
2013-06-20 00:56:00,52.4,51.0,30.12,SSW,204,0.0,0.0,93,0.00,,,0.00,weatherlink.com 1.10,2013-06-20 04:56:00,
2013-06-20 01:11:00,52.1,51.0,30.12,SSW,204,0.0,0.0,94,0.00,,,0.00,weatherlink.com 1.10,2013-06-20 05:11:00,
2013-06-20 01:26:00,51.7,50.0,30.12,SSW,204,0.0,0.0,94,0.00,,,0.00,weatherlink.com 1.10,2013-06-20 05:26:00,
2013-06-20 01:41:00,51.4,50.0,30.13,SSW,203,0.0,0.0,94,0.00,,,0.00,weatherlink.com 1.10,2013-06-20 05:41:00,
2013-06-20 01:56:00,51.1,50.0,30.13,SSW,204,0.0,0.0,94,0.00,,,0.00,weatherlink.com 1.10,2013-06-20 05:56:00,
2013-06-20 02:11:00,50.8,49.0,30.14,SSW,204,0.0,0.0,94,0.00,,,0.00,weatherlink.com 1.10,2013-06-20 06:11:00,
2013-06-20 02:26:00,50.4,49.0,30.14,SSW,204,0.0,1.0,94,0.00,,,0.00,weatherlink.com 1.10,2013-06-20 06:26:00,
2013-06-20 02:41:00,50.0,49.0,30.14,SSW,204,0.0,1.0,95,0.00,,,0.00,weatherlink.com 1.10,2013-06-20 06:41:00,
2013-06-20 02:56:00,49.7,48.0,30.14,SSW,204,0.0,1.0,95,0.00,,,0.00,weatherlink.com 1.10,2013-06-20 06:56:00,
2013-06-20 03:11:00,49.5,48.0,30.14,SSW,204,0.0,0.0,95,0.00,,,0.00,weatherlink.com 1.10,2013-06-20 07:11:00,
2013-06-20 03:26:00,49.3,48.0,30.14,SSW,203,0.0,0.0,95,0.00,,,0.00,weatherlink.com 1.10,2013-06-20 07:26:00,
2013-06-20 03:41:00,49.1,48.0,30.14,SSW,203,0.0,0.0,95,0.00,,,0.00,weatherlink.com 1.10,2013-06-20 07:41:00,
2013-06-20 03:56:00,48.9,48.0,30.15,SSW,204,0.0,0.0,95,0.00,,,0.00,weatherlink.com 1.10,2013-06-20 07:56:00,
2013-06-20 04:11:00,48.6,47.0,30.15,SSW,204,0.0,0.0,95,0.00,,,0.00,weatherlink.com 1.10,2013-06-20 08:11:00,
2013-06-20 04:26:00,48.6,48.0,30.16,SSW,204,0.0,0.0,96,0.00,,,0.00,weatherlink.com 1.10,2013-06-20 08:26:00,
2013-06-20 04:41:00,48.6,48.0,30.16,SSW,204,0.0,0.0,96,0.00,,,0.00,weatherlink.com 1.10,2013-06-20 08:41:00,
2013-06-20 04:56:00,48.5,48.0,30.17,SSW,204,0.0,0.0,96,0.00,,,0.00,weatherlink.com 1.10,2013-06-20 08:56:00,
2013-06-20 05:11:00,48.1,47.0,30.17,SSW,204,0.0,0.0,96,0.00,,,0.00,weatherlink.com 1.10,2013-06-20 09:11:00,
2013-06-20 05:26:00,48.3,47.0,30.18,SSW,203,0.0,1.0,96,0.00,,,0.00,weatherlink.com 1.10,2013-06-20 09:26:00,
2013-06-20 05:41:00,48.6,48.0,30.18,SSW,204,0.0,1.0,96,0.00,,,0.00,weatherlink.com 1.10,2013-06-20 09:41:00,
2013-06-20 05:56:00,49.3,48.0,30.18,SSW,203,0.0,0.0,96,0.00,,,0.00,weatherlink.com 1.10,2013-06-20 09:56:00,
2013-06-20 06:11:00,50.1,49.0,30.19,SSW,204,0.0,1.0,96,0.00,,,0.00,weatherlink.com 1.10,2013-06-20 10:11:00,
2013-06-20 06:26:00,51.6,51.0,30.19,SSW,203,0.0,1.0,96,0.00,,,0.00,weatherlink.com 1.10,2013-06-20 10:26:00,
2013-06-20 06:41:00,52.6,51.0,30.20,SSW,204,0.0,0.0,94,0.00,,,0.00,weatherlink.com 1.10,2013-06-20 10:41:00,
2013-06-20 06:56:00,54.2,52.0,30.20,SSW,204,0.0,0.0,93,0.00,,,0.00,weatherlink.com 1.10,2013-06-20 10:56:00,
2013-06-20 07:11:00,55.8,53.0,30.20,SSW,204,0.0,1.0,91,0.00,,,0.00,weatherlink.com 1.10,2013-06-20 11:11:00,
2013-06-20 07:26:00,57.5,53.0,30.21,SSW,193,0.0,1.0,85,0.00,,,0.00,weatherlink.com 1.10,2013-06-20 11:26:00,
2013-06-20 07:41:00,57.8,52.0,30.22,South,172,1.0,1.0,82,0.00,,,0.00,weatherlink.com 1.10,2013-06-20 11:41:00,
2013-06-20 07:57:00,58.8,52.0,30.22,SSE,150,2.0,2.0,78,0.00,,,0.00,weatherlink.com 1.10,2013-06-20 11:57:00,
2013-06-20 08:12:00,59.5,51.0,30.22,SE,146,2.0,2.0,74,0.00,,,0.00,weatherlink.com 1.10,2013-06-20 12:12:00,
2013-06-20 08:27:00,60.5,51.0,30.22,SE,135,2.0,3.0,71,0.00,,,0.00,weatherlink.com 1.10,2013-06-20 12:27:00,
2013-06-20 08:42:00,61.8,51.0,30.23,SE,138,2.0,2.0,68,0.00,,,0.00,weatherlink.com 1.10,2013-06-20 12:42:00,
2013-06-20 08:57:00,62.6,52.0,30.22,SE,131,3.0,4.0,68,0.00,,,0.00,weatherlink.com 1.10,2013-06-20 12:57:00,
2013-06-20 09:12:00,64.2,53.0,30.21,SE,146,2.0,4.0,67,0.00,,,0.00,weatherlink.com 1.10,2013-06-20 13:12:00,
2013-06-20 09:27:00,66.0,52.0,30.21,SE,133,2.0,4.0,61,0.00,,,0.00,weatherlink.com 1.10,2013-06-20 13:27:00,
2013-06-20 09:42:00,66.6,52.0,30.21,SE,135,2.0,4.0,59,0.00,,,0.00,weatherlink.com 1.10,2013-06-20 13:42:00,
2013-06-20 09:57:00,67.1,52.0,30.21,SE,141,2.0,4.0,59,0.00,,,0.00,weatherlink.com 1.10,2013-06-20 13:57:00,
2013-06-20 10:12:00,65.6,53.0,30.21,SE,135,4.0,6.0,65,0.00,,,0.00,weatherlink.com 1.10,2013-06-20 14:12:00,
2013-06-20 10:27:00,65.0,52.0,30.21,SE,135,5.0,6.0,64,0.00,,,0.00,weatherlink.com 1.10,2013-06-20 14:27:00,
2013-06-20 10:42:00,65.0,54.0,30.21,SE,128,5.0,7.0,67,0.00,,,0.00,weatherlink.com 1.10,2013-06-20 14:42:00,
2013-06-20 10:57:00,64.4,53.0,30.21,SE,133,6.0,8.0,67,0.00,,,0.00,weatherlink.com 1.10,2013-06-20 14:57:00,
2013-06-20 11:12:00,64.3,53.0,30.21,SE,145,6.0,8.0,68,0.00,,,0.00,weatherlink.com 1.10,2013-06-20 15:12:00,
2013-06-20 11:27:00,64.7,54.0,30.21,SE,133,5.0,8.0,68,0.00,,,0.00,weatherlink.com 1.10,2013-06-20 15:27:00,
2013-06-20 11:42:00,65.2,56.0,30.21,SE,131,6.0,7.0,72,0.00,,,0.00,weatherlink.com 1.10,2013-06-20 15:42:00,
2013-06-20 11:57:00,65.4,55.0,30.21,SE,124,6.0,9.0,70,0.00,,,0.00,weatherlink.com 1.10,2013-06-20 15:57:00,
2013-06-20 12:12:00,64.7,55.0,30.21,SE,131,6.0,11.0,71,0.00,,,0.00,weatherlink.com 1.10,2013-06-20 16:12:00,
2013-06-20 12:27:00,65.0,56.0,30.21,ESE,119,8.0,9.0,72,0.00,,,0.00,weatherlink.com 1.10,2013-06-20 16:27:00,
2013-06-20 12:42:00,64.7,56.0,30.21,SE,129,9.0,10.0,73,0.00,,,0.00,weatherlink.com 1.10,2013-06-20 16:42:00,
2013-06-20 12:57:00,64.5,55.0,30.20,SE,124,8.0,11.0,72,0.00,,,0.00,weatherlink.com 1.10,2013-06-20 16:57:00,
2013-06-20 13:12:00,64.7,55.0,30.21,SE,125,9.0,12.0,71,0.00,,,0.00,weatherlink.com 1.10,2013-06-20 17:12:00,
2013-06-20 13:27:00,64.3,56.0,30.21,ESE,110,7.0,12.0,74,0.00,,,0.00,weatherlink.com 1.10,2013-06-20 17:27:00,
2013-06-20 13:42:00,63.9,56.0,30.21,SE,139,9.0,12.0,75,0.00,,,0.00,weatherlink.com 1.10,2013-06-20 17:42:00,
2013-06-20 13:57:00,63.5,55.0,30.20,SE,131,6.0,13.0,75,0.00,,,0.00,weatherlink.com 1.10,2013-06-20 17:57:00,
2013-06-20 14:12:00,63.3,55.0,30.20,SSE,149,8.0,12.0,75,0.00,,,0.00,weatherlink.com 1.10,2013-06-20 18:12:00,
2013-06-20 14:27:00,63.1,55.0,30.20,SE,132,8.0,12.0,76,0.00,,,0.00,weatherlink.com 1.10,2013-06-20 18:27:00,
2013-06-20 14:42:00,62.5,56.0,30.20,ESE,115,12.0,12.0,79,0.00,,,0.00,weatherlink.com 1.10,2013-06-20 18:42:00,
2013-06-20 14:57:00,63.2,55.0,30.20,SE,129,8.0,11.0,75,0.00,,,0.00,weatherlink.com 1.10,2013-06-20 18:57:00,
2013-06-20 15:12:00,63.4,55.0,30.20,SE,146,9.0,12.0,74,0.00,,,0.00,weatherlink.com 1.10,2013-06-20 19:12:00,
2013-06-20 15:27:00,63.0,55.0,30.20,SE,129,10.0,11.0,74,0.00,,,0.00,weatherlink.com 1.10,2013-06-20 19:27:00,
2013-06-20 15:42:00,64.2,53.0,30.19,SE,138,9.0,13.0,67,0.00,,,0.00,weatherlink.com 1.10,2013-06-20 19:42:00,
2013-06-20 15:57:00,64.6,53.0,30.19,SE,138,8.0,12.0,66,0.00,,,0.00,weatherlink.com 1.10,2013-06-20 19:57:00,
2013-06-20 16:13:00,64.4,54.0,30.20,ESE,121,12.0,12.0,69,0.00,,,0.00,weatherlink.com 1.10,2013-06-20 20:13:00,
2013-06-20 16:27:00,64.1,55.0,30.19,SE,124,12.0,12.0,73,0.00,,,0.00,weatherlink.com 1.10,2013-06-20 20:27:00,
2013-06-20 16:42:00,64.2,55.0,30.19,SE,128,6.0,11.0,73,0.00,,,0.00,weatherlink.com 1.10,2013-06-20 20:42:00,
2013-06-20 16:57:00,63.3,55.0,30.18,SE,131,9.0,10.0,74,0.00,,,0.00,weatherlink.com 1.10,2013-06-20 20:57:00,
2013-06-20 17:12:00,64.3,53.0,30.18,SE,136,8.0,11.0,67,0.00,,,0.00,weatherlink.com 1.10,2013-06-20 21:12:00,
2013-06-20 17:27:00,63.5,55.0,30.18,SE,131,6.0,9.0,73,0.00,,,0.00,weatherlink.com 1.10,2013-06-20 21:27:00,
2013-06-20 17:42:00,63.9,55.0,30.18,SE,131,6.0,10.0,73,0.00,,,0.00,weatherlink.com 1.10,2013-06-20 21:42:00,
2013-06-20 17:57:00,63.6,55.0,30.18,SE,127,9.0,11.0,73,0.00,,,0.00,weatherlink.com 1.10,2013-06-20 21:57:00,
2013-06-20 18:12:00,63.8,54.0,30.18,ESE,121,12.0,12.0,71,0.00,,,0.00,weatherlink.com 1.10,2013-06-20 22:12:00,
2013-06-20 18:27:00,64.1,54.0,30.19,SE,125,9.0,11.0,69,0.00,,,0.00,weatherlink.com 1.10,2013-06-20 22:27:00,
2013-06-20 18:42:00,64.0,54.0,30.19,SE,130,8.0,13.0,69,0.00,,,0.00,weatherlink.com 1.10,2013-06-20 22:42:00,
2013-06-20 18:57:00,63.6,54.0,30.19,SE,131,7.0,10.0,71,0.00,,,0.00,weatherlink.com 1.10,2013-06-20 22:57:00,
2013-06-20 19:12:00,63.4,54.0,30.19,SE,127,7.0,9.0,71,0.00,,,0.00,weatherlink.com 1.10,2013-06-20 23:12:00,
2013-06-20 19:27:00,63.0,54.0,30.19,SE,131,8.0,12.0,73,0.00,,,0.00,weatherlink.com 1.10,2013-06-20 23:27:00,
2013-06-20 19:42:00,62.4,55.0,30.19,SE,135,8.0,13.0,78,0.00,,,0.00,weatherlink.com 1.10,2013-06-20 23:42:00,
2013-06-20 19:57:00,62.0,56.0,30.19,SE,127,8.0,11.0,80,0.00,,,0.00,weatherlink.com 1.10,2013-06-20 23:57:00,
2013-06-20 20:12:00,61.5,56.0,30.19,ESE,120,6.0,9.0,83,0.00,,,0.00,weatherlink.com 1.10,2013-06-21 00:12:00,
2013-06-20 20:27:00,61.3,57.0,30.19,SE,128,7.0,7.0,85,0.00,,,0.00,weatherlink.com 1.10,2013-06-21 00:27:00,
2013-06-20 20:43:00,61.1,57.0,30.20,SE,133,4.0,6.0,86,0.00,,,0.00,weatherlink.com 1.10,2013-06-21 00:43:00,
2013-06-20 20:57:00,61.0,57.0,30.20,SE,132,3.0,7.0,87,0.00,,,0.00,weatherlink.com 1.10,2013-06-21 00:57:00,
2013-06-20 21:12:00,60.9,57.0,30.21,SE,131,4.0,7.0,88,0.00,,,0.00,weatherlink.com 1.10,2013-06-21 01:12:00,
2013-06-20 21:27:00,60.7,58.0,30.21,SE,131,5.0,7.0,89,0.00,,,0.00,weatherlink.com 1.10,2013-06-21 01:27:00,
2013-06-20 21:43:00,60.5,57.0,30.21,SE,136,3.0,4.0,89,0.00,,,0.00,weatherlink.com 1.10,2013-06-21 01:43:00,
2013-06-20 21:58:00,60.3,57.0,30.21,SE,127,1.0,4.0,89,0.00,,,0.00,weatherlink.com 1.10,2013-06-21 01:58:00,
2013-06-20 22:13:00,60.3,57.0,30.20,SSE,158,1.0,2.0,89,0.00,,,0.00,weatherlink.com 1.10,2013-06-21 02:13:00,
2013-06-20 22:28:00,60.2,57.0,30.20,SSE,153,1.0,2.0,89,0.00,,,0.00,weatherlink.com 1.10,2013-06-21 02:28:00,
2013-06-20 22:43:00,60.1,57.0,30.20,SSE,152,0.0,2.0,89,0.00,,,0.00,weatherlink.com 1.10,2013-06-21 02:43:00,
2013-06-20 22:58:00,59.5,57.0,30.20,SSE,158,0.0,1.0,90,0.00,,,0.00,weatherlink.com 1.10,2013-06-21 02:58:00,
2013-06-20 23:13:00,59.7,57.0,30.20,SE,139,1.0,3.0,91,0.00,,,0.00,weatherlink.com 1.10,2013-06-21 03:13:00,
2013-06-20 23:28:00,58.4,56.0,30.20,South,172,0.0,0.0,90,0.00,,,0.00,weatherlink.com 1.10,2013-06-21 03:28:00,
2013-06-20 23:43:00,57.6,55.0,30.20,South,177,0.0,0.0,92,0.00,,,0.00,weatherlink.com 1.10,2013-06-21 03:43:00,
2013-06-20 23:58:00,57.0,55.0,30.20,South,187,0.0,0.0,93,0.00,,,0.00,weatherlink.com 1.10,2013-06-21 03:58:00,